Regional Weather Roundup
Issued by NWS

Home | Current Version | Previous Version | Text Only | Print | Product List | Glossary Off
Versions: 1 2 3 4 5 6 7 8 9 10 11 12 13 14 15 16 17 18 19 20 21 22 23 24 25 26 27 28 29 30 31 32 33 34 35 36 37 38 39 40 41 42 43 44 45 46 47 48 49 50

000
ASUS43 KFSD 241502
RWRSD

WEATHER ROUNDUP FOR SOUTH DAKOTA
NATIONAL WEATHER SERVICE SIOUX FALLS SD
1000 AM CDT SUN SEP 24 2017

NOTE: "FAIR" INDICATES FEW OR NO CLOUDS BELOW 12,000 FEET WITH NO
SIGNIFICANT WEATHER AND/OR OBSTRUCTIONS TO VISIBILITY.


SDZ001>005-009-010-012>017-241600-
NORTHWEST AND NORTH CENTRAL SOUTH DAKOTA

CITY           SKY/WX    TMP DP  RH WIND       PRES   REMARKS
BUFFALO          N/A     45  42  89 N13       29.99R
FAITH            N/A     46  46 100 N16       29.99S
MOBRIDGE       LGT RAIN  50  48  93 NW16G23   29.92R
$$

SDZ012>016-024>037-041>051-057-063-072>074-241600-
SOUTHWEST AND SOUTH CENTRAL SOUTH DAKOTA

CITY           SKY/WX    TMP DP  RH WIND       PRES   REMARKS
RAPID CTY ARPT CLOUDY    45  43  93 NW21      30.03R
PIERRE         LGT RAIN  51  49  92 NW15      29.92R FOG
CUSTER         CLOUDY    43  36  76 VRB5      30.01S
ELLSWORTH AFB  CLOUDY    45  45 100 N15       30.02
PHILIP         CLOUDY    48  47  96 N18G25    29.97F
PINE RIDGE     CLOUDY    46  44  93 N12       30.02R
SPEARFISH      FOG       41  41 100 NW8       30.06R VSB 1
WINNER         LGT RAIN  53  51  93 NW13G18   29.91S
$$

SDZ004>011-016>023-039-040-241600-
NORTHEAST SOUTH DAKOTA

CITY           SKY/WX    TMP DP  RH WIND       PRES   REMARKS
ABERDEEN       LGT RAIN  54  54 100 NW12      29.86R FOG
WATERTOWN      CLOUDY    65  63  93 S10       29.83F
BROOKINGS      LGT RAIN  68  64  87 S13       29.86F
SISSETON         N/A     62  62 100 S5        29.82S
$$

SDZ017-020-022-023-036>040-048>070-241600-
SOUTHEAST SOUTH DAKOTA

CITY           SKY/WX    TMP DP  RH WIND       PRES   REMARKS
SIOUX FALLS    CLOUDY    76  67  73 S15       29.86F
HURON          LGT RAIN  56  56 100 W8        29.87S
CHAMBERLAIN    LGT RAIN  56  56 100 NW10      29.91R
MITCHELL       CLOUDY    58  56  93 W8        29.89R
YANKTON        CLOUDY    69  65  86 SW6       29.87R
$$

ABBREVIATIONS USED IN REMARKS
   TC - TEMPERATURE IN CELSIUS
  WCI - WIND CHILL INDEX
   HX - HEAT INDEX
  VSB - VISIBILITY





USA.gov is the U.S. government's official web portal to all federal, state and local government web resources and services.